Regional Weather Roundup
Issued by NWS

Home | Current Version | Previous Version | Text Only | Print | Product List | Glossary Off
Versions: 1 2 3 4 5 6 7 8 9 10 11 12 13 14 15 16 17 18 19 20 21 22 23 24 25 26 27 28 29 30 31 32 33 34 35 36 37 38 39 40 41 42 43 44 45 46 47 48 49 50

000
ASUS43 KLOT 290504
RWRIL

ILLINOIS REGIONAL WEATHER ROUNDUP
NATIONAL WEATHER SERVICE CHICAGO/ROMEOVILLE IL
1200 AM CDT MON MAY 29 2017

NOTE: "FAIR" INDICATES FEW OR NO CLOUDS BELOW 12,000 FEET WITH NO
SIGNIFICANT WEATHER AND/OR OBSTRUCTIONS TO VISIBILITY.

* THESE STATIONS ARE NOT UNDER NWS QUALITY CONTROL. THEY ALSO MAY NOT
  REPORT WEATHER SUCH AS PRECIPITATION OR FOG.

ILZ001-002-007-009-015-016-024-290600-
NORTHWEST ILLINOIS

CITY           SKY/WX    TMP DP  RH WIND       PRES   REMARKS
MOLINE         PTCLDY    62  50  64 W8        29.79R
STERLING*      PTCLDY    60  55  83 CALM      29.78S
SAVANNA*       PTCLDY    59  56  88 CALM      29.77S
$$

ILZ003-004-008-010-011-017-018-290600-
NORTH CENTRAL ILLINOIS

CITY           SKY/WX    TMP DP  RH WIND       PRES   REMARKS
ROCKFORD       MOCLDY    61  51  70 CALM      29.77S
FREEPORT*      MOCLDY    60  49  66 SW7       29.78F
ROCHELLE*      CLOUDY    59  55  84 CALM      29.78S
DE KALB*       MOCLDY    62  51  68 SW6       29.78F
$$

ILZ005-006-012>014-019>023-290600-
NORTHEAST ILLINOIS

CITY           SKY/WX    TMP DP  RH WIND       PRES   REMARKS
CHICAGO-OHARE  PTCLDY    64  48  56 SW5       29.75F
CHICAGO-MIDWAY PTCLDY    65  50  58 SW7       29.76S
AURORA         MOCLDY    60  53  77 CALM      29.78S
LANSING*       CLEAR     58  54  86 CALM      29.77S
JOLIET*        PTCLDY    57  54  88 CALM      29.78S
WAUKEGAN       PTCLDY    55  50  83 SW3       29.74S
DUPAGE AIRPORT MOCLDY    58  54  86 S3        29.76F
WHEELING       PTCLDY    59  51  75 S3        29.76F
MORRIS*        PTCLDY    62  51  66 CALM      29.77S
ROMEOVILLE*    PTCLDY    60  54  79 SW6       29.78S
NORTHERLY ISL    N/A     62  49  62 W2          N/A
$$

LMZ740>746-290600-
SOUTHERN LAKE MICHIGAN

STATION/POSITION SKY/WX   TEMP    WIND        PRES    VSBY  WAVE
                          AIR SEA DIR/SP/G                  HT/PER
                          (F)     (DEG/KT/KT) (MB)    (MI)  (FT/S)
SOUTHERN BUOY              53 48  250/ 10/ 10 1007.1          1
WILMETTE HARBOR            59 56  220/  6/  6   N/A           0
HARRISON CRIB              71     260/  9/  9   N/A
BURNHAM HARBOR             62     210/  2/  3   N/A
CALUMET HARBOR             66     220/  2/  3 1007.4F
BURNS HARBOR               66     200/  5/  6 1008.8S
MICHIGAN CITY              65     220/ 10/ 11   N/A
MICHIGAN CITY 6N           60 58  230/  6/  6   N/A           0
ST. JOSEPH                 62 59  240/  8/ 10 1007.7F         0
$$

ILZ025>027-034>036-040-047-049-050-058-095>099-290600-
WEST-CENTRAL ILLINOIS

CITY           SKY/WX    TMP DP  RH WIND       PRES   REMARKS
QUINCY         PTCLDY    62  52  69 SW6       29.85R
GALESBURG*     MOCLDY    65  50  58 W10       29.81R
MACOMB*        MOCLDY    63  50  63 W8        29.85R
JACKSONVILLE*  CLOUDY    65  57  77 S8        29.87R
PITTSFIELD*    MOCLDY    66  56  70 S6        29.88R
$$

ILZ028>032-037-038-041>044-048-051>054-059>061-290600-
CENTRAL ILLINOIS

CITY           SKY/WX    TMP DP  RH WIND       PRES   REMARKS
PONTIAC        MOCLDY    64  54  71 S6        29.80S
BLOOMINGTON    PTCLDY    61  50  67 SW8       29.84R
DECATUR        CLEAR     64  54  69 SW8       29.86R
PEORIA         MOCLDY    61  51  70 S5        29.81S
LACON*         MOCLDY    60  53  77 S3        29.78S
LINCOLN*       PTCLDY    66  55  69 CALM      29.85R
SPRINGFIELD    CLOUDY    65  58  78 SW7       29.86R
TAYLORVILLE    NOT AVBL
$$

ILZ033-039-045-046-055>057-062-063-290600-
EAST-CENTRAL ILLINOIS

CITY           SKY/WX    TMP DP  RH WIND       PRES   REMARKS
CHAMPAIGN      CLEAR     63  54  72 SW8       29.86R
RANTOUL*       CLEAR     63  56  79 SW6       29.85R
MATTOON        CLEAR     67  55  65 SW7       29.86S
PARIS*         MOCLDY    65  56  71 W10       29.87R
$$

ILZ079-100>102-290600-
SOUTHWEST ILLINOIS

CITY           SKY/WX    TMP DP  RH WIND       PRES   REMARKS
BELLEVILLE     CLEAR     65  58  78 W7        29.90S
CAHOKIA*       CLEAR     67  57  70 SW5       29.89S
SPARTA*        CLEAR     65  58  77 SW3       29.91F
$$

ILZ064>066-069>071-074>076-080>082-084>086-088>090-092>094-290600-
SOUTH-CENTRAL ILLINOIS

CITY           SKY/WX    TMP DP  RH WIND       PRES   REMARKS
CARBONDALE     CLEAR     63  63 100 CALM      29.90F
CAIRO*         CLOUDY    67  67 100 W3        29.91S
EFFINGHAM*     CLOUDY    65  58  78 SW5       29.90S
MARION         CLOUDY    63  63 100 CALM      29.91F
MT. VERNON     FOG       58  57  97 CALM      29.89F VSB 3/4
CENTRALIA*     CLEAR     65  59  82 W3        29.89S
SALEM*         PTCLDY    66  57  72 CALM      29.89S
$$

ILZ067-068-072-073-078-083-087-091-290600-
SOUTHEAST ILLINOIS

CITY           SKY/WX    TMP DP  RH WIND       PRES   REMARKS
LAWRENCEVILLE  CLEAR     67  60  78 W7        29.87R
FLORA*         CLEAR     69  57  64 W10       29.89S
FAIRFIELD*     CLEAR     63  60  91 CALM      29.88S
HARRISBURG*    CLEAR     63  63  97 CALM      29.91S
ROBINSON*      CLEAR     66  58  75 W10       29.88R
CARMI*         CLEAR     64  63  94 W3        29.89S
$$

ABBREVIATIONS USED IN REMARKS
   TC - TEMPERATURE IN CELSIUS
  WCI - WIND CHILL INDEX
   HX - HEAT INDEX
  VSB - VISIBILITY
$$




USA.gov is the U.S. government's official web portal to all federal, state and local government web resources and services.